STARLINK-31723 (59553 NORAD) Tracking and Keplerian Element Data

This shows tracking and keplerian element data for the satellite.

Feedback or suggestion? Click here.




ElementValue
Catalog59553
NameSTARLINK-31723
Epoch Orbit898
Epoch Day160.00001157
Epoch Year2024
RAAN27.7563
Inclination43.001
Eccentricity0.0001355
Argument of Perigee277.9649
Mean Anonmoly199.7986
Mean Motion15.40650105
Decay Rate0.00095779
L11 59553U 24074V 24160.00001157 .00095779 00000+0 22752-2 0 9997
L22 59553 43.0010 27.7563 0001355 277.9649 199.7986 15.40650105 8986



Live tracking and technical data element details for STARLINK-31723 (NORAD 59553). STARLINK-31723 can be tracked NOW for your location showing map with azimuth and elevation plus other details from your city location.







IsCatalogInMostPopularTable: catalog: 59553, numindb: 13
Update: records affected: 1



GetName: 59553 STARLINK-31723

Hit Count: updated at: Fri, 14 Jun 2024 18:21:30 GMT